Theta_e
302 297 292 295 298 297 293 291 290 293 298 297 296 296 297 300 296 295 296 295 298 310 318 320 322 323 325 324 325 325 325 327 326 324 322 322 322 322 321 321 321 321 320 319
295 291 294 298 299 296 295 291 290 293 297 296 295 296 300 302 300 297 299 298 298 298 309 316 320 320 322 323 323 325 325 325 326 326 325 325 324 323 324 323 322 321 320 319
290 291 295 295 293 293 293 291 291 291 294 296 293 293 297 301 304 304 301 301 302 300 300 309 317 319 321 322 322 323 325 325 325 327 326 319 320 317 320 321 322 322 321 320
291 295 293 292 292 294 288 294 294 293 291 286 293 286 295 298 301 303 305 300 301 302 300 303 312 317 320 321 323 323 325 325 325 325 324 323 322 320 322 323 323 323 323 321
287 291 291 290 292 294 291 295 293 292 291 291 291 287 291 295 295 299 303 304 303 303 305 303 306 315 320 322 323 323 323 324 325 325 325 323 321 322 323 323 321 322 322 323
290 293 296 293 296 296 296 293 293 294 291 284 289 289 288 292 296 299 300 303 304 306 306 305 305 312 317 321 322 323 322 322 323 324 325 323 322 322 320 320 319 320 321 321
287 291 293 295 293 297 295 291 282 281 280 282 289 288 290 295 299 301 300 302 303 305 307 302 302 307 313 317 319 322 321 321 322 322 323 323 323 322 321 319 320 319 320 321
281 275 290 294 293 290 292 291 283 277 278 281 285 284 289 297 301 303 301 299 301 303 304 303 302 306 311 315 318 321 321 321 322 322 322 323 323 323 322 321 321 321 321 322
279 280 289 292 294 294 288 287 292 285 281 280 282 283 290 294 293 298 300 298 293 296 300 300 300 305 310 314 316 319 320 321 322 322 323 323 323 323 323 322 321 321 321 321
285 280 287 290 293 294 293 294 285 286 278 277 280 282 285 286 293 296 295 296 300 293 294 296 298 302 308 313 316 318 320 320 321 322 323 324 324 324 324 323 321 322 321 320
287 285 282 290 289 287 289 288 290 290 286 280 279 283 293 293 291 294 298 298 296 298 294 294 295 298 306 311 313 316 318 319 320 320 322 323 323 324 324 325 323 321 320 320
289 285 279 283 291 294 293 290 290 284 282 284 284 285 288 291 297 297 297 296 292 291 291 290 291 292 296 303 307 313 315 316 318 319 319 321 321 321 323 324 324 321 320 319
291 285 280 283 286 289 289 291 291 290 286 284 281 284 289 285 285 288 290 291 289 290 289 289 291 292 292 297 303 308 310 312 309 311 314 312 312 316 319 321 322 318 320 322
295 287 285 280 281 286 285 288 291 290 285 285 285 288 292 287 286 287 288 289 289 290 291 290 291 293 294 295 296 299 301 302 303 305 307 307 307 309 310 310 310 312 314 314
293 284 287 287 287 288 287 287 289 287 288 285 288 289 292 295 291 289 289 289 289 290 291 291 292 293 295 296 296 297 298 299 299 300 301 302 302 302 303 304 303 301 300 301
292 279 283 282 287 288 286 288 289 290 289 290 290 290 292 293 288 288 288 288 289 291 291 292 293 293 294 296 296 297 298 298 299 298 298 297 297 295 294 294 292 293 294 296
283 281 281 279 284 284 282 286 287 289 292 291 287 292 295 291 288 287 288 288 290 291 292 292 293 294 294 296 297 297 297 296 297 295 294 293 292 292 292 292 293 292 292 292
282 281 281 276 279 273 284 292 291 290 291 293 294 296 297 298 296 292 291 290 291 291 292 292 293 294 295 295 296 296 295 295 293 291 291 290 291 290 290 291 291 291 291 292
288 284 280 274 276 280 283 286 289 288 288 294 294 296 298 300 298 299 297 291 292 292 291 292 292 291 291 292 292 291 290 290 289 289 289 290 291 289 289 288 291 290 290 289
288 288 282 274 276 273 282 288 293 294 284 295 296 296 297 297 288 293 298 290 289 289 289 289 288 288 288 287 288 288 287 287 287 287 288 288 288 290 289 288 287 285 286 286
281 283 279 279 278 279 285 288 294 283 285 296 298 298 298 290 296 298 289 288 288 287 286 286 286 285 285 286 286 285 284 284 284 285 286 287 287 287 288 286 285 286 286 286
281 280 279 280 277 276 286 289 287 291 292 293 297 299 297 300 298 289 288 286 285 285 284 283 282 281 281 283 284 282 282 283 284 285 285 286 286 285 286 286 285 286 286 286
280 284 280 283 281 287 287 287 294 289 290 289 293 297 298 297 296 287 286 284 283 282 281 280 279 278 278 281 282 282 281 283 284 285 285 285 285 285 286 286 285 285 286 285
283 286 285 284 286 288 287 289 289 288 288 288 287 288 292 291 287 284 284 282 281 280 279 278 278 276 275 276 277 278 280 281 284 283 283 284 284 284 285 285 285 285 285 284
283 285 284 284 286 285 286 286 285 286 285 286 285 285 287 286 284 284 282 280 279 278 277 277 276 274 273 273 273 274 276 280 281 280 279 280 281 282 281 282 283 283 283 285
282 284 285 284 280 283 285 282 282 283 282 283 284 284 284 285 283 281 280 278 277 275 274 273 272 271 270 271 270 270 271 274 276 275 275 274 275 275 275 277 278 286 286 286
Wind_Speed
4 6 16 16 13 8 3 7 10 1 3 1 7 17 9 14 11 9 12 10 14 17 21 14 18 16 15 15 17 18 18 17 12 11 10 8 10 7 6 7 10 10 8 9
1 18 4 6 9 16 12 12 14 3 3 2 9 21 12 13 21 11 17 15 16 14 14 10 14 16 18 18 20 19 18 17 15 12 11 9 9 6 8 8 9 10 10 10
17 6 17 12 7 15 19 22 13 9 3 6 4 22 17 11 18 17 18 18 17 18 19 17 15 19 19 21 20 20 20 20 16 16 9 3 3 2 5 6 8 9 11 10
14 19 4 8 19 15 21 13 12 12 5 11 4 18 21 10 20 18 22 19 20 20 16 16 17 18 20 22 19 21 20 19 17 16 13 16 13 12 11 10 8 9 11 11
10 8 17 20 19 15 14 6 8 15 15 13 16 8 21 12 19 25 15 20 22 22 24 20 20 22 19 19 20 18 20 18 18 17 17 14 13 10 7 8 10 11 10 12
8 2 7 9 16 18 5 9 6 8 12 13 29 17 30 20 25 18 11 16 22 24 25 20 22 20 17 18 17 16 17 19 18 18 19 19 18 14 10 8 9 8 7 8
8 14 3 4 6 9 11 8 4 6 7 13 10 15 30 9 16 24 16 13 19 23 24 19 20 18 19 18 19 17 19 20 20 20 19 18 18 16 14 11 9 9 7 7
13 6 22 9 22 5 13 13 6 8 7 10 3 13 27 16 28 28 21 16 12 16 16 17 20 20 20 19 19 20 21 19 19 19 20 18 17 11 11 11 9 9 10 10
9 10 2 3 5 16 7 13 14 12 6 5 6 11 18 17 13 15 22 17 13 12 13 19 18 18 18 18 21 22 20 19 18 20 17 17 16 16 14 14 12 10 10 8
4 4 6 6 4 12 19 4 8 11 16 25 10 14 19 4 19 23 20 20 20 12 10 12 13 15 15 17 19 20 21 22 20 20 17 16 18 17 15 11 12 13 10 10
5 4 2 8 14 18 10 12 10 4 6 13 15 14 18 19 11 18 21 23 20 19 14 13 12 12 14 14 15 17 17 17 16 15 16 15 14 15 13 14 13 13 10 11
23 4 13 22 3 14 18 20 24 11 19 8 13 26 4 10 19 19 20 17 9 7 8 7 8 8 8 9 10 14 14 15 16 14 14 14 11 11 13 14 13 11 12 10
14 11 9 4 4 5 17 23 22 23 5 22 18 22 7 6 10 15 16 12 10 8 8 7 7 7 9 9 10 12 12 13 8 9 11 8 8 10 12 12 11 9 11 12
16 6 9 15 5 6 13 19 25 22 15 21 20 33 21 9 10 12 11 7 6 6 7 6 6 7 7 7 9 8 7 7 8 8 8 8 7 7 6 6 6 6 6 7
8 12 11 20 19 14 17 24 29 27 33 19 33 27 24 18 17 12 9 9 7 8 9 8 7 7 7 7 6 6 6 7 7 7 7 6 6 6 6 6 5 6 6 5
4 8 5 19 14 19 25 22 24 30 33 30 37 32 8 9 8 8 10 8 9 10 9 8 8 7 8 9 7 7 7 7 7 7 7 7 7 6 6 6 6 6 5 5
6 4 1 7 6 12 21 35 26 30 31 32 30 41 11 10 11 10 10 9 10 7 8 10 10 9 7 8 9 8 8 7 8 8 7 7 8 7 6 6 7 6 5 3
5 4 3 7 3 17 10 14 31 33 28 30 36 24 22 15 18 6 6 6 8 7 8 9 8 7 6 6 7 7 7 6 7 7 7 7 7 8 7 6 6 5 3 4
14 7 4 4 8 19 30 7 18 20 36 31 35 27 24 16 7 28 13 9 9 7 4 4 6 6 6 7 7 8 7 7 7 6 7 6 6 6 5 5 6 4 4 3
14 14 10 3 7 20 4 5 20 13 33 28 31 29 28 12 8 16 26 8 6 7 4 7 7 7 8 5 8 10 8 7 6 6 6 6 5 6 5 5 4 2 3 3
6 9 19 16 13 10 7 7 15 17 13 18 29 29 25 17 22 16 8 6 5 5 8 7 8 8 5 5 8 10 8 7 4 5 6 6 5 5 5 5 3 4 4 4
14 9 10 13 12 15 6 10 27 13 9 3 13 21 20 27 20 5 6 10 12 13 10 8 9 8 5 6 9 9 9 5 6 6 8 7 6 4 4 7 4 4 4 5
8 10 7 13 9 4 6 4 13 4 5 4 10 20 24 24 25 14 9 12 9 10 10 9 9 9 8 8 6 10 5 7 8 8 8 7 7 6 5 7 6 5 4 4
6 5 8 1 7 10 6 10 4 5 5 7 5 5 9 16 15 12 11 12 10 8 9 11 12 10 8 7 8 6 6 5 9 10 8 7 7 7 6 5 4 5 4 4
7 6 8 11 8 5 6 1 8 8 4 6 4 6 4 15 11 15 15 13 11 10 8 10 12 11 10 6 8 6 5 7 10 9 7 7 6 7 8 7 5 5 4 4
6 8 9 10 1 2 2 6 10 8 5 4 5 5 5 6 18 17 12 11 11 11 10 11 11 11 9 9 9 7 5 7 9 10 6 5 6 5 4 6 7 14 13 14
Wind_Direction
187 203 214 214 217 236 335 245 242 144 187 280 246 271 249 257 246 237 252 237 229 228 230 214 215 206 204 201 198 199 196 195 185 190 185 190 199 197 195 202 204 195 197 192
23 242 164 197 212 233 241 262 262 311 234 291 278 271 250 243 258 232 239 242 235 232 236 215 209 204 204 199 203 201 202 197 195 194 192 198 192 204 206 205 206 200 193 192
213 222 194 206 212 231 237 239 252 252 5 254 322 282 264 239 256 246 249 245 242 231 231 221 204 205 204 209 200 202 201 199 198 198 188 130 136 121 197 202 207 206 199 197
230 236 196 195 225 206 242 215 246 268 278 262 149 279 260 219 244 240 233 228 239 240 236 222 210 207 206 211 204 205 199 200 197 192 191 197 207 209 215 211 208 206 204 204
220 181 207 222 218 207 238 168 203 230 245 259 249 260 278 189 234 244 232 228 227 230 235 220 210 209 207 204 206 199 197 194 194 192 196 196 205 210 200 203 199 204 202 207
224 214 197 213 214 205 170 252 289 257 232 233 238 220 273 238 239 264 229 219 220 231 240 227 213 210 207 201 203 198 189 194 191 195 198 200 205 204 198 192 196 200 198 201
210 229 246 219 182 208 200 194 232 230 213 242 232 221 246 254 251 234 241 230 220 226 231 220 208 201 204 195 195 190 188 197 194 197 199 200 206 205 205 197 199 193 193 201
202 277 210 182 215 195 205 197 204 223 225 251 217 216 242 236 240 247 252 234 227 236 233 221 212 201 200 191 189 190 192 197 195 194 200 203 204 206 209 203 199 202 204 207
176 244 203 161 165 184 188 224 226 276 245 261 218 273 288 264 254 248 245 232 225 229 223 210 208 209 198 188 190 192 192 198 195 197 197 199 201 206 208 204 200 202 203 200
237 267 188 183 149 220 224 206 194 206 243 246 233 247 250 244 231 229 227 232 229 206 212 226 202 199 199 193 192 190 194 193 196 197 198 201 202 204 208 198 200 205 204 192
195 203 202 143 202 194 197 226 227 269 203 243 260 252 240 236 224 239 246 233 227 214 197 207 214 192 194 193 189 188 190 193 196 194 199 201 206 205 199 206 205 205 195 194
205 223 243 228 150 220 225 224 218 227 223 227 257 265 214 243 233 236 249 242 226 186 193 199 195 177 178 182 172 183 184 186 194 190 188 198 198 194 200 210 208 195 200 197
170 204 240 247 240 229 219 218 224 234 276 235 231 256 205 281 284 254 236 232 206 178 180 189 169 180 186 183 179 178 178 186 168 161 172 173 178 183 198 203 201 183 201 213
160 193 220 234 213 148 214 221 219 221 233 242 238 258 261 288 258 270 271 230 180 171 180 186 179 179 180 174 174 169 169 157 154 162 165 172 173 178 178 172 174 176 189 195
209 248 244 255 265 269 224 222 215 216 229 228 244 243 257 256 273 266 261 234 167 181 187 184 195 188 165 154 153 143 142 144 143 145 149 161 147 144 139 141 123 100 89 81
179 247 223 267 270 254 250 249 224 221 227 235 250 258 278 269 243 230 229 233 220 198 189 181 187 189 171 156 154 141 140 138 133 139 143 134 126 122 117 112 111 113 119 125
160 151 189 277 290 303 257 225 221 226 227 225 233 240 240 289 281 270 252 226 232 224 188 187 186 185 175 159 149 154 148 138 137 134 136 134 131 127 127 127 122 135 141 134
170 166 166 270 349 269 274 212 213 216 227 224 238 241 223 241 277 292 276 240 251 229 199 184 163 144 149 140 128 124 130 135 133 129 129 129 135 136 140 140 141 130 125 153
204 189 241 236 217 281 278 249 217 213 242 228 234 240 241 240 281 283 285 218 225 219 196 154 122 114 125 126 125 118 114 115 115 127 130 135 141 133 139 138 134 129 138 132
206 208 207 179 229 256 35 233 196 195 259 220 221 227 220 177 227 230 240 174 134 127 121 123 103 96 95 91 117 112 115 114 115 134 135 127 140 127 134 122 115 86 88 101
182 201 218 230 242 265 239 214 146 185 263 201 212 217 209 191 212 224 127 111 108 107 114 96 81 88 90 101 104 101 104 101 97 82 91 93 87 101 107 108 100 126 109 103
189 192 211 222 239 264 170 178 177 236 341 86 187 212 209 217 213 200 141 131 137 133 120 98 102 90 60 71 101 105 97 104 104 104 96 90 89 93 101 105 99 95 102 100
226 198 191 200 222 212 208 232 228 313 252 237 205 224 213 211 198 157 154 134 134 132 120 104 108 92 60 60 93 116 119 120 112 101 98 97 91 84 88 109 110 98 89 84
238 210 236 330 232 230 242 253 262 324 314 304 284 280 243 187 157 140 138 125 121 124 123 117 109 94 79 55 67 82 101 104 112 108 103 100 98 89 80 68 65 81 77 86
193 154 213 253 278 311 238 308 326 304 315 314 352 2 265 128 128 134 132 127 123 117 108 106 109 107 96 82 73 56 75 99 98 93 82 75 76 87 88 72 73 73 47 67
183 187 202 241 35 300 301 318 329 311 329 351 357 43 2 149 136 128 119 118 122 114 112 103 99 102 95 82 67 52 58 76 107 99 90 85 91 81 81 86 73 73 82 75